Regional Weather Roundup
Issued by NWS Northern Indiana

Home | Current Version | Previous Version | Text Only | Print | Product List | Glossary On
Versions: 1 2 3 4 5 6 7 8 9 10 11 12 13 14 15 16 17 18 19 20 21 22 23 24 25 26 27 28 29 30 31 32 33 34 35 36 37 38 39 40 41 42 43 44 45 46 47 48 49 50
000
ASUS43 KIWX 311610
RWRIWX

KIWX WEATHER ROUNDUP
NATIONAL WEATHER SERVICE NORTHERN INDIANA
1100 AM EST SAT JAN 31 2015

NOTE: "FAIR" INDICATES FEW OR NO CLOUDS BELOW 12,000 FEET WITH NO
SIGNIFICANT WEATHER AND/OR OBSTRUCTIONS TO VISIBILITY.

* THESE STATIONS ARE NOT UNDER NWS QUALITY CONTROL. THEY ALSO MAY NOT
  REPORT WEATHER SUCH AS PRECIPITATION OR FOG.

INZ001>027-311700-
NORTHERN INDIANA

CITY           SKY/WX    TMP DP  RH WIND       PRES   REMARKS
GARY*          MOSUNNY   34  19  55 SW12      30.26S WCI  25
VALPARAISO     SUNNY     31  23  72 SW16      30.26S WCI  20
MICHIGAN CITY* MOSUNNY   34  19  55 SW10      30.25F WCI  26
LAPORTE*       SUNNY     32  25  74 SW12      30.26S WCI  23
KNOX*          SUNNY     32  10  40 SW14      30.26S WCI  22
SOUTH BEND     NOT AVBL
ELKHART*       PTSUNNY   30  18  59 SW10      30.26  WCI  21
GOSHEN         SUNNY     30  22  72 SW14      30.26F WCI  19
MONTICELLO*    PTSUNNY   31  24  73 SW14      30.28F WCI  21
LOGANSPORT*    SUNNY     32  25  74 SW15      30.30F WCI  22
ROCHESTER*     SUNNY     34  27  75 SW8       30.29S WCI  27
WARSAW*        SUNNY     32  21  64 SW7       30.27F WCI  26
ANGOLA*        SUNNY     28  19  69 SW13      30.25S WCI  18
FORT WAYNE     SUNNY     30  21  69 SW14      30.30F WCI  19
HUNTINGTON*    SUNNY     30  17  57 SW7       30.30S WCI  23
PERU/GRISSOM   SUNNY     31  23  71 SW13      30.29F WCI  22
MARION*        SUNNY     31  23  72 SW12      30.31F WCI  21

$$
INZ028>050-311700-
CENTRAL INDIANA

CITY           SKY/WX    TMP DP  RH WIND       PRES   REMARKS
LAFAYETTE      MOSUNNY   32  23  69 SW8       30.30F WCI  25
KOKOMO*        SUNNY     32  23  69 SW15      30.30F WCI  22
MUNCIE*        SUNNY     31  21  66 SW10      30.32S WCI  22
INDIANAPOLIS   CLOUDY    28  21  75 SW8       30.34F WCI  20

$$
MIZ043>046-050>051-056>058-064>065-071>073-077>080-311700-
SOUTHWEST LOWER MICHIGAN

CITY           SKY/WX    TMP DP  RH WIND       PRES   REMARKS
BATTLE CREEK   SUNNY     27  18  69 SW9       30.23S WCI  18
BENTON HARBOR  CLOUDY    29  23  78 SW14      30.24S WCI  18
COLDWATER*     SUNNY     28  20  70 SW14G20   30.24S WCI  17
HILLSDALE*     SUNNY     27  19  70 SW9       30.23S WCI  18
HOLLAND        CLOUDY    29  23  78 S13       30.21S WCI  19
GRAND RAPIDS   CLOUDY    26  20  77 SW12      30.20F WCI  16
KALAMAZOO      PTSUNNY   28  19  69 SW10      30.23F WCI  19
STURGIS*       SUNNY     28  21  74 SW10      30.24S WCI  19
THREE RIVERS*  FAIR      30  20  67 SW9       30.25S WCI  21

$$
OHZ001>008-015>018-024>025-311700-
NORTHWEST OHIO

CITY           SKY/WX    TMP DP  RH WIND       PRES   REMARKS
WAUSEON*       FAIR      27  19  74 SW12      30.28S WCI  16
DEFIANCE       SUNNY     28  19  69 SW10      30.29F WCI  19
FINDLAY        SUNNY     26  17  68 S14       30.30F WCI  14
TOLEDO EXPRESS SUNNY     27  17  66 SW10      30.28F WCI  17
TOLEDO METCALF SUNNY     26  17  68 SW15      30.30F WCI  14
LIMA           SUNNY     27  17  66 SW13      30.31F WCI  16

$$
AND FOR LAKE MICHIGAN COASTAL AND OPEN LAKE BUOY OBSERVATIONS

STATION/POSITION TEMP    WIND        PRES    VSBY  WAVE
                 AIR SEA DIR/SP/G                  HT/PER
                 (F)     (DEG/KT/KT) (MB)    (MI)  (FT/S)
CALUMET HARBOR    32     220/ 10/ 15   N/A
MICHIGAN CITY     31     200/ 15/ 17   N/A
SAINT JOSEPH      30     190/ 16/ 18 1024.7R
SAINT JOSEPH CG                      1025.6   3 1/2  1

$$
&&


USA.gov is the U.S. government's official web portal to all federal, state and local government web resources and services.